TIGRISAT (40043 NORAD) Tracking and Keplerian Element Data

This shows tracking and keplerian element data for the satellite.

Feedback or suggestion? Click here.




ElementValue
Catalog40043
NameTIGRISAT
Epoch Orbit61906
Epoch Day354.18523209
Epoch Year2025
RAAN143.6885
Inclination97.7569
Eccentricity0.0049168
Argument of Perigee302.6842
Mean Anonmoly56.9635
Mean Motion14.84155618
Decay Rate1.654E-05
L11 40043U 14033AK 25354.18523209 .00001654 00000+0 20033-3 0 9997
L22 40043 97.7569 143.6885 0049168 302.6842 56.9635 14.84155618619063



Live tracking and technical data element details for TIGRISAT (NORAD 40043). TIGRISAT can be tracked NOW for your location showing map with azimuth and elevation plus other details from your city location.







IsCatalogInMostPopularTable: catalog: 40043, numindb: 461
Update: records affected: 1



GetName: 40043 TIGRISAT

Hit Count: updated at: Thu, 21 May 2026 11:17:12 GMT